Weather History for KVLD - March, 2014

Change the Weather History Date:

Monday, March 17, 2014

  Actual Average Record
Temperature  
Mean Temperature 64 °F 60 °F  
Max Temperature 67 °F 73 °F 93 °F (1999)
Min Temperature 61 °F 48 °F 39 °F (1999)
Degree Days  
Heating Degree Days 1 6  
Month to date heating degree days 118 118  
Since 1 July heating degree days 1169 1498  
Cooling Degree Days 0 1  
Month to date cooling degree days 8 17  
Year to date cooling degree days 40 27  
Growing Degree Days 13 (Base 50)    
Moisture  
Dew Point 59 °F    
Average Humidity 86    
Maximum Humidity 90    
Minimum Humidity 81    
Precipitation  
Precipitation 1.48 in 0.14 in 1.48 in (2014)
Month to date precipitation 3.58 2.75  
Year to date precipitation 9.72 11.48  
Sea Level Pressure  
Sea Level Pressure 29.74 in    
Wind  
Wind Speed 3 mph (SSE)    
Max Wind Speed 10 mph    
Max Gust Speed 14 mph    
Visibility 7 miles    
Events Rain    
T = Trace of Precipitation, MM = Missing Value Source: NWS Daily Summary

Daily Weather History Graph

Daily Weather History Graph

Search for Another Location

Airport or City:

Trip Planner

Search our weather history database for the weather conditions in past years. The results will help you decide how hot, cold, wet, or windy it might be!

Date:

Astronomy

Mar. 17, 2014 Rise Set
Actual Time 7:40 AM EDT 7:42 PM EDT
Civil Twilight 7:16 AM EDT 8:06 PM EDT
Nautical Twilight 6:48 AM EDT 8:34 PM EDT
Astronomical Twilight 6:20 AM EDT 9:02 PM EDT
Moon 8:51 PM EDT (3/17) 8:00 AM EDT (3/17)
Length of Visible Light 12h 50m
Length of Day
12h 02m
Full, 99% of the Moon is Illuminated
Mar 17
Full
Mar 23
Last Quarter
Mar 30
New
Apr 7
First Quarter
Apr 15
Full

Hourly Weather History & Observations

Time (EDT) Temp. Dew Point Humidity Pressure Visibility Wind Dir Wind Speed Gust Speed Precip Events Conditions
12:53 AM 62.1 °F 57.9 °F 86% 29.81 in 4.0 mi Calm Calm - 0.07 in Rain Heavy Rain
1:41 AM 62.6 °F 57.2 °F 82% 29.78 in 7.0 mi NE 3.5 mph - 0.06 in Rain Light Rain
1:53 AM 62.1 °F 57.0 °F 84% 29.80 in 6.0 mi NE 3.5 mph - 0.08 in Rain Rain
2:15 AM 62.6 °F 57.2 °F 82% 29.79 in 2.5 mi Calm Calm - 0.02 in Rain Rain
2:22 AM 62.6 °F 57.2 °F 82% 29.78 in 3.0 mi Calm Calm - 0.03 in Rain Rain
2:53 AM 61.0 °F 57.0 °F 87% 29.79 in 5.0 mi Calm Calm - 0.07 in Rain Rain
3:19 AM 60.8 °F 57.2 °F 88% 29.74 in 6.0 mi SE 10.4 mph - 0.02 in Rain Rain
3:53 AM 61.0 °F 57.0 °F 87% 29.74 in 8.0 mi SE 5.8 mph - 0.06 in Rain Light Rain
4:06 AM 60.8 °F 57.2 °F 88% 29.71 in 10.0 mi SSE 5.8 mph - 0.01 in   Overcast
4:53 AM 61.0 °F 57.0 °F 87% 29.73 in 5.0 mi SSE 5.8 mph - 0.06 in Rain Rain
5:43 AM 60.8 °F 57.2 °F 88% 29.67 in 10.0 mi SSE 6.9 mph - 0.04 in Rain Light Rain
5:53 AM 61.0 °F 57.0 °F 87% 29.69 in 10.0 mi SE 4.6 mph - 0.05 in   Overcast
6:53 AM 61.0 °F 57.0 °F 87% 29.72 in 9.0 mi South 5.8 mph - 0.06 in Rain Light Rain
7:24 AM 60.8 °F 57.2 °F 88% 29.68 in 10.0 mi SSE 9.2 mph - 0.03 in Rain Light Rain
7:42 AM 60.8 °F 57.2 °F 88% 29.68 in 10.0 mi SSE 9.2 mph - 0.04 in Rain Light Rain
7:53 AM 61.0 °F 57.0 °F 87% 29.69 in 9.0 mi SSE 6.9 mph - 0.05 in Rain Light Rain
8:53 AM 62.1 °F 57.9 °F 86% 29.73 in 3.0 mi Calm Calm - 0.06 in Rain Rain
9:00 AM 62.6 °F 57.2 °F 82% 29.71 in 3.0 mi SSW 3.5 mph - 0.01 in Rain Light Rain
9:08 AM 62.6 °F 57.2 °F 82% 29.72 in 5.0 mi Variable 3.5 mph - 0.01 in Rain Light Rain
9:53 AM 62.1 °F 57.9 °F 86% 29.78 in 5.0 mi SSW 3.5 mph - 0.05 in Rain Light Rain
10:04 AM 62.6 °F 57.2 °F 82% 29.76 in 5.0 mi Calm Calm - 0.01 in Rain Rain
10:53 AM 63.0 °F 59.0 °F 87% 29.78 in 8.0 mi South 4.6 mph - 0.05 in Rain Light Rain
11:05 AM 62.6 °F 59.0 °F 88% 29.76 in 9.0 mi Calm Calm - 0.01 in Rain Light Rain
11:53 AM 64.0 °F 59.0 °F 84% 29.78 in 10.0 mi Calm Calm - 0.05 in Rain Light Rain
12:16 PM 64.4 °F 59.0 °F 83% 29.79 in 10.0 mi Calm Calm - 0.02 in Rain Light Rain
12:53 PM 64.9 °F 60.1 °F 84% 29.81 in 6.0 mi Calm Calm - 0.06 in Rain Light Rain
1:40 PM 66.2 °F 60.8 °F 83% 29.74 in 10.0 mi South 5.8 mph - 0.05 in   Overcast
1:53 PM 66.0 °F 61.0 °F 84% 29.74 in 10.0 mi SE 4.6 mph - 0.06 in   Overcast
2:25 PM 66.2 °F 60.8 °F 83% 29.73 in 10.0 mi Calm Calm - 0.04 in   Overcast
2:39 PM 66.2 °F 60.8 °F 83% 29.73 in 10.0 mi Calm Calm - 0.06 in   Overcast
2:53 PM 66.0 °F 62.1 °F 87% 29.75 in 10.0 mi Calm Calm - 0.08 in Rain Light Rain
3:53 PM 66.9 °F 61.0 °F 81% 29.72 in 10.0 mi Calm Calm - 0.08 in   Overcast
4:53 PM 66.9 °F 62.1 °F 84% 29.68 in 10.0 mi SSE 10.4 mph - 0.07 in Rain Light Rain
5:53 PM 66.0 °F 61.0 °F 84% 29.69 in 10.0 mi SSE 4.6 mph - 0.07 in   Overcast
6:00 PM 66.2 °F 60.8 °F 83% 29.67 in 10.0 mi SSE 4.6 mph - 0.01 in   Overcast
6:53 PM 66.0 °F 62.1 °F 87% 29.72 in 10.0 mi Variable 3.5 mph - 0.07 in   Overcast
7:53 PM 66.0 °F 61.0 °F 84% 29.73 in 10.0 mi Calm Calm - 0.07 in   Overcast
8:00 PM 66.2 °F 60.8 °F 83% 29.72 in 10.0 mi Calm Calm - 0.01 in   Overcast
8:53 PM 64.9 °F 61.0 °F 87% 29.75 in 6.0 mi Calm Calm - 0.06 in   Overcast
9:53 PM 64.9 °F 60.1 °F 84% 29.78 in 7.0 mi Calm Calm - 0.06 in Rain Light Rain
10:53 PM 64.0 °F 61.0 °F 90% 29.76 in 5.0 mi East 3.5 mph - 0.06 in Rain Light Rain
11:20 PM 64.4 °F 60.8 °F 88% 29.76 in 3.0 mi Calm Calm - 0.02 in Rain Heavy Rain
11:23 PM 64.4 °F 60.8 °F 88% 29.76 in 2.0 mi Calm Calm - 0.03 in Rain Heavy Rain
11:30 PM 64.4 °F 60.8 °F 88% 29.75 in 1.8 mi Calm Calm - 0.03 in Rain Heavy Rain
11:39 PM 64.4 °F 60.8 °F 88% 29.74 in 2.5 mi Calm Calm - 0.04 in Rain Heavy Rain
11:48 PM 64.4 °F 60.8 °F 88% 29.74 in 5.0 mi North 4.6 mph - 0.05 in Rain Light Rain
11:53 PM 64.9 °F 61.0 °F 87% 29.76 in 6.0 mi Calm Calm - 0.05 in Rain Light Rain